�N����,����,�~����,�C��,���x,�C��,����,���ϕ���,�ő�u�ԕ���,�ő厞����,���˗�,�I�_���x,�n�����x,�ő啗���N��,DTYPE
"17/07/31","00:10",0.0,26.9,89.7,1001.9,306.7,0.7,1.3,326.3,0.00,25.1,27.2,"00:07:44",1
"17/07/31","00:20",0.0,26.8,90.0,1001.5,310.7,0.8,1.3,325.7,0.00,25.1,27.2,"00:10:16",1
"17/07/31","00:30",0.0,26.8,90.1,1001.5,302.1,0.7,1.1,320.6,0.00,25.1,27.0,"00:26:48",1
"17/07/31","00:40",0.0,26.7,90.2,1001.5,318.6,1.2,2.4,335.1,0.00,25.0,27.1,"00:37:44",1
"17/07/31","00:50",0.0,26.7,90.1,1001.5,279.4,0.6,1.4,316.6,0.00,25.0,26.9,"00:40:08",1
"17/07/31","01:00",0.0,26.7,90.2,1001.7,315.9,1.0,2.2,335.1,0.00,25.0,27.1,"00:50:24",1
"17/07/31","01:10",0.0,26.7,90.3,1001.5,319.3,0.7,1.1,345.0,0.00,25.0,26.9,"01:05:28",1
"17/07/31","01:20",0.0,26.7,90.2,1001.5,280.4,0.7,1.0,304.5,0.00,25.0,26.8,"01:11:12",1
"17/07/31","01:30",0.0,26.7,90.3,1001.9,278.0,0.7,1.2,306.2,0.00,25.0,26.9,"01:29:20",1
"17/07/31","01:40",0.0,26.7,90.4,1001.9,291.1,0.8,1.2,258.9,0.00,25.0,26.8,"01:30:08",1
"17/07/31","01:50",0.0,26.6,90.5,1001.5,271.2,0.7,1.2,252.6,0.00,25.0,26.8,"01:43:20",1
"17/07/31","02:00",0.0,26.5,90.5,1001.5,283.2,0.7,1.0,301.7,0.00,24.9,26.8,"01:56:08",1
"17/07/31","02:10",0.0,26.4,90.6,1001.7,276.1,1.0,1.6,323.8,0.00,24.8,26.8,"02:01:12",1
"17/07/31","02:20",0.0,26.4,90.8,1001.5,306.4,0.6,1.1,295.4,0.00,24.8,26.7,"02:10:08",1
"17/07/31","02:30",0.0,26.3,90.9,1001.7,279.9,0.7,1.1,262.7,0.00,24.7,26.6,"02:24:08",1
"17/07/31","02:40",0.0,26.2,91.2,1001.5,322.3,0.8,1.8,321.9,0.00,24.7,26.7,"02:35:20",1
"17/07/31","02:50",0.0,26.0,91.4,1001.9,314.8,0.7,1.2,339.1,0.00,24.5,26.6,"02:40:48",1
"17/07/31","03:00",0.0,25.9,91.7,1001.9,301.4,0.7,1.7,313.7,0.00,24.5,26.6,"02:55:20",1
"17/07/31","03:10",0.0,25.9,91.9,1001.9,297.7,0.7,1.3,303.8,0.00,24.5,26.4,"03:05:44",1
"17/07/31","03:20",0.0,25.8,91.9,1001.9,291.8,0.7,1.1,273.7,0.00,24.4,26.6,"03:12:40",1
"17/07/31","03:30",0.0,25.7,92.2,1002.2,304.3,0.8,1.3,295.6,0.00,24.4,26.6,"03:23:20",1
"17/07/31","03:40",0.0,25.7,92.4,1002.4,310.0,0.7,1.1,308.2,0.00,24.4,26.5,"03:34:32",1
"17/07/31","03:50",0.0,25.7,92.6,1001.9,293.1,0.7,1.6,333.4,0.00,24.4,26.4,"03:49:20",1
"17/07/31","04:00",0.0,25.7,92.6,1002.2,281.2,0.7,1.1,255.5,0.00,24.4,26.4,"03:56:08",1
"17/07/31","04:10",0.0,25.7,92.7,1002.2,288.4,0.7,1.0,290.6,0.00,24.5,26.2,"04:01:20",1
"17/07/31","04:20",0.0,25.8,92.8,1002.4,275.1,0.7,1.1,269.6,0.00,24.6,26.3,"04:18:40",1
"17/07/31","04:30",0.0,25.9,92.7,1002.4,282.0,0.7,1.3,300.5,0.00,24.7,26.4,"04:23:20",1
"17/07/31","04:40",0.0,26.0,92.6,1002.4,292.2,0.7,1.1,333.7,0.00,24.7,26.4,"04:39:44",1
"17/07/31","04:50",0.0,26.0,92.4,1002.4,284.8,0.7,1.0,256.3,0.00,24.7,26.2,"04:42:40",1
"17/07/31","05:00",0.0,26.0,92.3,1002.6,282.2,0.7,1.2,260.5,0.00,24.7,26.6,"04:50:56",1
"17/07/31","05:10",0.0,26.1,92.2,1003.1,280.6,0.7,1.2,312.0,0.00,24.8,26.2,"05:07:12",1
"17/07/31","05:20",0.0,26.1,92.0,1002.9,289.3,0.7,1.6,300.0,0.00,24.7,26.2,"05:12:56",1
"17/07/31","05:30",0.0,26.2,92.2,1002.9,308.5,0.7,1.3,335.8,0.00,24.9,26.0,"05:27:36",1
"17/07/31","05:40",0.0,26.2,92.2,1002.9,314.0,0.8,1.2,327.8,0.00,24.9,26.4,"05:33:44",1
"17/07/31","05:50",0.0,26.1,92.1,1003.1,295.5,0.5,0.8,297.3,0.00,24.8,26.2,"05:49:36",1
"17/07/31","06:00",0.0,26.1,92.1,1002.6,282.6,0.6,1.1,256.3,0.00,24.8,26.4,"05:53:52",1
"17/07/31","06:10",0.0,26.3,92.2,1003.1,318.4,0.7,1.1,344.0,0.00,25.0,26.4,"06:07:12",1
"17/07/31","06:20",0.0,26.5,92.2,1003.1,321.5,0.8,1.4,332.7,0.01,25.2,26.2,"06:13:44",1
"17/07/31","06:30",0.0,26.6,91.6,1002.9,329.3,0.8,1.4,336.2,0.01,25.2,26.2,"06:22:32",1
"17/07/31","06:40",0.0,26.7,91.4,1003.1,288.9,0.6,0.9,335.2,0.01,25.2,26.3,"06:30:16",1
"17/07/31","06:50",0.0,26.9,91.1,1003.1,290.9,0.2,0.5,274.1,0.02,25.4,26.3,"06:40:08",1
"17/07/31","07:00",0.0,27.2,90.5,1003.1,241.1,0.1,0.4,176.8,0.03,25.5,26.3,"06:55:52",1
"17/07/31","07:10",0.0,27.5,89.7,1003.4,320.7,0.1,0.6,319.4,0.04,25.7,26.3,"07:03:04",1
"17/07/31","07:20",0.0,27.7,88.7,1003.1,347.6,0.2,0.6,346.6,0.04,25.7,26.2,"07:12:08",1
"17/07/31","07:30",0.0,28.1,87.5,1003.1,14.2,0.3,1.0,348.7,0.06,25.9,26.4,"07:28:32",1
"17/07/31","07:40",0.0,28.4,87.1,1003.1,317.2,0.2,1.1,342.2,0.07,26.1,26.3,"07:31:12",1
"17/07/31","07:50",0.0,28.6,86.0,1003.4,345.9,0.5,1.0,355.0,0.07,26.1,26.5,"07:49:04",1
"17/07/31","08:00",0.0,28.6,85.3,1002.9,13.0,0.3,1.2,354.0,0.05,25.9,26.5,"07:58:40",1
"17/07/31","08:10",0.0,28.7,83.9,1003.1,350.2,0.6,1.2,344.7,0.07,25.7,26.6,"08:03:04",1
"17/07/31","08:20",0.0,28.8,84.0,1002.4,344.7,0.5,1.4,336.2,0.12,25.9,26.6,"08:13:04",1
"17/07/31","08:30",0.0,29.1,81.3,1002.6,148.5,0.5,1.3,349.8,0.15,25.6,26.8,"08:21:44",1
"17/07/31","08:40",0.0,29.4,81.3,1002.6,167.6,0.2,1.2,224.1,0.11,25.9,26.7,"08:30:02",1
"17/07/31","08:50",0.0,29.7,79.7,1002.9,292.0,0.5,1.3,346.0,0.19,25.9,26.7,"08:49:36",1
"17/07/31","09:00",0.0,29.7,80.1,1003.1,39.6,0.6,1.6,348.2,0.13,25.9,26.7,"08:56:16",1
"17/07/31","09:10",0.0,29.9,79.6,1002.9,29.7,0.3,1.3,22.6,0.12,26.0,26.8,"09:03:04",1
"17/07/31","09:20",0.0,30.4,78.9,1002.9,235.6,0.3,1.6,125.9,0.21,26.4,26.8,"09:12:48",1
"17/07/31","09:30",0.0,31.0,78.0,1003.1,160.7,0.8,1.6,158.5,0.30,26.7,26.9,"09:25:20",1
"17/07/31","09:40",0.0,30.7,77.3,1003.4,85.8,0.6,1.6,28.5,0.18,26.3,27.1,"09:35:04",1
"17/07/31","09:50",0.0,30.2,79.0,1003.4,151.4,1.1,2.8,119.4,0.16,26.2,27.1,"09:43:28",1
"17/07/31","10:00",0.0,31.9,74.6,1003.1,230.2,0.6,2.2,199.2,0.43,26.9,27.2,"09:53:04",1
"17/07/31","10:10",0.0,32.2,73.7,1003.4,28.9,0.8,1.9,28.7,0.43,26.9,27.3,"10:02:08",1
"17/07/31","10:20",0.0,32.6,71.6,1003.8,11.6,1.0,2.5,346.9,0.44,26.8,27.5,"10:16:16",1
"17/07/31","10:30",0.0,33.0,73.7,1004.1,158.3,0.8,2.9,221.8,0.47,27.7,27.7,"10:20:16",1
"17/07/31","10:40",0.0,33.2,69.6,1004.1,76.6,0.8,2.6,120.5,0.45,26.9,27.7,"10:31:20",1
"17/07/31","10:50",0.0,33.2,68.4,1004.5,186.6,0.8,3.1,197.0,0.56,26.6,27.9,"10:44:08",1
"17/07/31","11:00",0.0,31.9,71.5,1004.5,233.5,1.0,3.4,221.9,0.29,26.1,28.2,"10:54:24",1
"17/07/31","11:10",0.0,32.8,68.0,1004.3,186.1,1.5,2.7,167.1,0.43,26.2,28.2,"11:04:08",1
"17/07/31","11:20",0.0,33.6,67.3,1004.3,122.6,1.1,2.7,157.2,0.54,26.7,28.4,"11:12:24",1
"17/07/31","11:30",0.0,33.5,64.2,1004.3,115.8,1.3,2.8,124.2,0.53,25.8,28.6,"11:21:12",1
"17/07/31","11:40",0.0,34.2,61.9,1004.3,42.0,1.1,3.2,10.1,0.59,25.9,28.8,"11:35:36",1
"17/07/31","11:50",0.0,33.2,64.0,1004.3,119.7,0.8,2.2,78.9,0.32,25.5,28.8,"11:45:28",1
"17/07/31","12:00",0.0,34.5,65.8,1004.3,162.7,1.3,3.4,207.4,0.55,27.2,29.1,"11:52:00",1
"17/07/31","12:10",0.0,34.2,62.7,1004.1,169.5,2.0,3.7,224.0,0.59,26.1,29.2,"12:02:00",1
"17/07/31","12:20",0.0,34.6,61.5,1004.1,144.8,1.5,3.6,192.9,0.58,26.2,29.4,"12:10:02",1
"17/07/31","12:30",0.0,35.5,60.7,1004.1,116.0,0.7,2.0,170.2,0.58,26.8,29.3,"12:20:08",1
"17/07/31","12:40",0.0,35.2,58.6,1004.1,205.2,1.2,3.2,207.2,0.59,25.9,29.6,"12:32:00",1
"17/07/31","12:50",0.0,34.7,60.8,1003.8,183.3,1.1,2.6,140.0,0.43,26.1,30.0,"12:40:56",1
"17/07/31","13:00",0.0,33.4,63.8,1003.6,199.3,1.8,3.7,227.8,0.15,25.6,29.7,"12:55:28",1
"17/07/31","13:10",0.0,34.3,64.7,1003.4,220.0,1.1,2.4,169.7,0.31,26.7,30.0,"13:02:00",1
"17/07/31","13:20",0.0,35.3,58.7,1002.9,344.5,1.0,2.7,345.8,0.47,26.0,30.1,"13:14:08",1
"17/07/31","13:30",0.0,35.3,58.6,1003.1,93.4,0.8,1.9,351.7,0.38,26.0,29.9,"13:21:04",1
"17/07/31","13:40",0.0,34.9,57.3,1002.9,223.8,1.3,3.1,225.6,0.37,25.2,29.9,"13:38:16",1
"17/07/31","13:50",0.0,35.1,57.4,1002.6,238.2,1.0,2.5,225.1,0.40,25.5,30.0,"13:45:04",1
"17/07/31","14:00",0.0,33.7,61.0,1002.6,225.4,1.2,2.9,227.7,0.10,25.2,30.1,"13:56:40",1
"17/07/31","14:10",0.0,35.3,59.1,1002.2,238.7,1.2,3.4,233.7,0.51,26.1,30.0,"14:02:48",1
"17/07/31","14:20",0.0,35.1,59.6,1002.4,221.9,1.3,3.3,228.1,0.43,26.1,30.1,"14:12:40",1
"17/07/31","14:30",0.0,35.7,56.8,1002.4,196.6,1.5,3.1,192.5,0.46,25.8,30.1,"14:25:04",1
"17/07/31","14:40",0.0,36.5,54.2,1002.9,204.1,0.8,2.2,173.8,0.49,25.8,30.1,"14:36:56",1
"17/07/31","14:50",0.0,36.3,55.7,1002.6,217.2,1.1,3.4,211.5,0.45,26.1,30.1,"14:46:48",1
"17/07/31","15:00",0.0,34.9,57.8,1002.9,205.2,0.7,2.0,214.2,0.10,25.4,30.3,"14:53:12",1
"17/07/31","15:10",0.0,34.4,59.1,1002.2,226.0,1.1,2.4,226.3,0.07,25.3,30.2,"15:06:00",1
"17/07/31","15:20",0.0,33.8,61.6,1001.7,232.0,1.0,2.0,226.0,0.06,25.4,30.0,"15:13:52",1
"17/07/31","15:30",0.0,33.4,62.4,1001.2,225.8,0.7,1.8,219.5,0.04,25.3,30.1,"15:26:16",1
"17/07/31","15:40",0.0,33.0,67.1,1001.2,305.7,0.7,1.7,345.2,0.01,26.1,29.9,"15:32:40",1
"17/07/31","15:50",0.0,32.3,66.6,1000.8,320.8,0.7,2.4,325.9,0.01,25.3,29.8,"15:45:12",1
"17/07/31","16:00",0.0,32.2,68.6,1000.5,288.8,0.7,2.4,300.3,0.01,25.7,29.7,"15:53:44",1
"17/07/31","16:10",0.0,31.8,70.2,1000.3,332.3,1.1,2.8,3.4,0.01,25.7,29.6,"16:02:48",1
"17/07/31","16:20",0.0,31.5,71.1,1000.3,318.9,1.2,2.8,357.7,0.01,25.7,29.4,"16:18:24",1
"17/07/31","16:30",0.0,31.4,72.1,1000.3,342.7,0.7,1.7,342.7,0.01,25.8,29.3,"16:21:44",1
"17/07/31","16:40",0.0,31.1,71.5,1000.5,5.5,2.0,4.0,352.5,0.00,25.4,29.4,"16:37:44",1
"17/07/31","16:50",0.0,30.6,71.5,1000.5,13.2,2.1,4.3,352.4,0.01,24.9,29.2,"16:40:16",1
"17/07/31","17:00",0.0,30.3,72.7,1000.0,2.9,2.0,3.9,348.2,0.07,24.9,29.3,"16:59:20",1
"17/07/31","17:10",0.0,30.2,73.0,1000.5,347.8,1.7,3.9,337.8,0.08,24.9,29.1,"17:09:34",1
"17/07/31","17:20",0.0,29.9,72.6,1000.3,339.7,1.7,4.1,349.8,0.10,24.5,29.2,"17:11:04",1
"17/07/31","17:30",0.0,30.3,73.4,1000.3,350.4,1.3,3.2,356.6,0.10,25.0,28.9,"17:20:48",1
"17/07/31","17:40",0.0,31.2,71.8,1000.5,315.6,0.5,2.0,55.8,0.13,25.5,28.9,"17:33:52",1
"17/07/31","17:50",0.0,32.0,68.5,1001.0,12.0,0.7,2.2,45.9,0.09,25.5,28.8,"17:47:04",1
"17/07/31","18:00",0.0,32.2,66.7,1001.0,25.1,0.6,1.3,61.7,0.06,25.3,28.8,"17:51:12",1
"17/07/31","18:10",0.0,32.1,68.3,1001.7,295.6,0.5,1.4,9.2,0.04,25.6,28.7,"18:01:04",1
"17/07/31","18:20",0.0,31.3,70.3,1001.9,285.7,0.3,1.6,358.8,0.02,25.3,28.5,"18:19:44",1
"17/07/31","18:30",0.0,30.8,71.4,1001.5,341.2,1.5,4.4,335.9,0.02,25.1,28.7,"18:29:28",1
"17/07/31","18:40",0.0,30.5,73.6,1001.0,329.4,1.5,3.6,344.6,0.02,25.3,28.8,"18:32:48",1
"17/07/31","18:50",0.0,30.0,75.6,1001.0,326.2,0.8,2.1,313.5,0.00,25.3,28.7,"18:41:04",1
"17/07/31","19:00",0.0,29.7,77.2,1000.8,318.9,0.6,1.8,323.7,0.00,25.3,28.6,"18:55:36",1
"17/07/31","19:10",0.0,29.4,77.7,1000.8,340.4,1.0,2.2,335.7,0.00,25.1,28.3,"19:04:00",1
"17/07/31","19:20",0.0,29.3,78.5,1001.0,348.1,1.1,2.8,345.5,0.00,25.2,28.3,"19:14:40",1
"17/07/31","19:30",0.0,29.0,79.4,1001.2,333.3,1.0,1.8,344.7,0.00,25.1,28.2,"19:29:52",1
"17/07/31","19:40",0.0,28.9,80.1,1001.9,334.5,1.1,2.7,321.4,0.00,25.2,28.3,"19:37:04",1
"17/07/31","19:50",0.0,28.8,80.4,1001.5,339.5,1.0,2.4,342.2,0.00,25.1,28.3,"19:45:20",1
"17/07/31","20:00",0.0,28.8,81.1,1001.7,341.8,1.0,2.1,336.3,0.00,25.3,28.2,"19:50:56",1
"17/07/31","20:10",0.0,28.5,81.5,1001.9,289.6,0.6,1.1,316.3,0.00,25.1,28.1,"20:09:44",1
"17/07/31","20:20",0.0,28.3,82.3,1001.7,341.9,0.5,1.1,313.0,0.00,25.0,28.1,"20:10:16",1
"17/07/31","20:30",0.0,28.1,82.8,1001.9,344.7,0.7,1.7,355.9,0.00,24.9,28.0,"20:27:12",1
"17/07/31","20:40",0.0,27.9,83.8,1002.2,341.8,0.7,1.4,354.7,0.00,24.9,27.9,"20:33:28",1
"17/07/31","20:50",0.0,27.5,84.5,1001.7,332.1,1.0,1.7,350.4,0.00,24.7,27.8,"20:49:04",1
"17/07/31","21:00",0.0,27.3,85.2,1002.2,319.1,0.8,1.3,302.3,0.00,24.6,27.8,"20:51:36",1
"17/07/31","21:10",0.0,27.2,85.7,1002.4,295.7,0.5,1.0,333.3,0.00,24.6,27.8,"21:00:08",1
"17/07/31","21:20",0.0,27.2,86.1,1002.4,285.2,0.6,1.1,265.1,0.00,24.7,27.7,"21:11:52",1
"17/07/31","21:30",0.0,27.0,86.5,1002.9,308.4,0.8,1.3,322.4,0.00,24.6,27.6,"21:25:28",1
"17/07/31","21:40",0.0,26.9,86.9,1002.6,295.0,0.8,1.4,297.0,0.00,24.6,27.6,"21:38:16",1
"17/07/31","21:50",0.0,26.9,87.1,1002.9,327.7,1.0,1.6,328.9,0.00,24.6,27.6,"21:47:20",1
"17/07/31","22:00",0.0,26.7,87.7,1002.9,329.2,1.0,1.6,333.4,0.00,24.5,27.5,"21:56:40",1
"17/07/31","22:10",0.0,26.6,88.2,1002.9,328.5,1.1,1.8,329.3,0.00,24.5,27.5,"22:09:36",1
"17/07/31","22:20",0.0,26.7,88.2,1003.1,315.1,1.3,2.2,324.9,0.00,24.6,27.2,"22:13:28",1
"17/07/31","22:30",0.0,26.8,88.1,1003.1,293.7,0.8,1.8,326.7,0.00,24.7,27.2,"22:21:36",1
"17/07/31","22:40",0.0,27.0,87.7,1003.1,313.1,1.6,3.3,313.4,0.00,24.8,27.2,"22:37:04",1
"17/07/31","22:50",0.0,27.2,86.5,1003.4,323.8,1.8,3.2,337.5,0.00,24.8,27.3,"22:48:08",1
"17/07/31","23:00",0.0,27.3,85.7,1003.4,293.6,1.1,2.1,330.9,0.00,24.7,27.2,"22:51:44",1
"17/07/31","23:10",0.0,27.3,85.0,1003.6,287.4,1.1,2.7,325.8,0.00,24.6,27.2,"23:07:12",1
"17/07/31","23:20",0.0,27.3,84.0,1003.1,325.6,0.8,2.2,29.1,0.00,24.4,27.2,"23:19:12",1
"17/07/31","23:30",0.0,27.4,82.9,1003.1,334.5,1.0,3.3,330.8,0.00,24.3,27.2,"23:24:24",1
"17/07/31","23:40",0.0,27.4,82.2,1003.1,324.7,0.8,1.9,344.7,0.00,24.1,27.1,"23:31:12",1
"17/07/31","23:50",0.0,27.3,82.9,1002.9,307.3,1.3,2.9,321.3,0.00,24.2,26.8,"23:49:20",1
"17/07/31","24:00",0.0,27.1,83.4,1002.9,312.7,1.2,3.4,351.7,0.00,24.1,27.0,"23:50:24",1
